STARLINK-1199, 45201

Orbit data source: Space-Track

STARLINK-1199, 45201 is a payload satellite owned by SpaceX/Seattle (US) in LEO that was launched on Mon, 17 Feb 2020 UTC via an FALCON 9 launch vehicle from the Air Force Eastern Test Range (AFETR). Payload-class satellites include a variety of spacecraft equipped with specific instruments for various scientific and technological missions. These include communications satellites like Starlink; space stations such as the ISS; scientific satellites like the Hubble; Earth observation satellites from companies like Planet Labs, Umbra, and HawkEye 360; GPS; miniature CubeSats for education and research; and military/defense satellites.

Loading next visibility...
Identifier
45201, 2020-012Z
Orbit
LEO
Country
Flag of USUS
Related business
Manufacturer
SpaceX/Seattle
Mission
Partially operational Commercial Communications
Bus & Motor
STARLINK, Unknown motor
Mass
260 kg wet, ~248 kg dry
Launch date (UTC)
2020-02-17 (7 years ago)
Launch vehicle
FALCON 9
Launch site
Air Force Eastern Test Range (AFETR)
Object type
Payload
Rocket body
Debris
Shape & HBR
Box + 1 Pan, 10.1 m
Radar Cross Section
13.562 m², Large (>1 m²)

Expand to show TLE details & history
Last TLE update: 8 hours ago

TLE from 8 hours ago
0 STARLINK-1199
1 45201U 20012Z   26253.97137247  .00055707  00000-0  12540-2 0  9993
2 45201  53.1511 236.3001 0001287  52.0374 308.0749 15.42779044363628
Epoch: 2026-09-10T23:18Z
TLE epoch observation values (Epoch: 2026-09-10T23:18:46.581Z)
Latitude
0.00004°
Longitude
-103.39538°
Altitude
438.274 km
Speed
7.65 km/s
True Right ascension
15h 45m 12s
True Declination
0° 00' 00"
Sunlit
Object was in daylight at epoch
Visualization orbit readout
Latitude
Unknown
Longitude
Unknown
Altitude
Unknown
Speed
Unknown
Apparent Right ascension
Unknown
Apparent Declination
Unknown
Sunlit
N/A
Visualization observer readout
Local Sidereal Time
23:19:32
Azimuth
Unknown
Elevation
Unknown
Doppler factor
Unknown
Orbital elements
Apogee altitude
439.048 km
Perigee altitude
437.294 km
Semi-major axis
6,816.308 km
Eccentricity
0.00013
Inclination
53.1511°
RAAN
236.3001°
Arg. of periapsis
52.0374°
True anomaly
308.06329°
Mean anomaly
308.0749°
Eccentric anomaly
308.06909°
Mean motion
3.85673 °/min
Orbital period
93.34 mins
BSTAR
0.001254
Loading maneuver chart data...
Computing Atmospheric mass density...
Loading historical data...
Loading historical data...
Loading historical data...
Loading historical data...
Loading historical data...
Loading historical data...
Loading historical data...

Documentation

Showing up to 5 results
|